Location: Ford County Road and Bridge Department
(37.7686°N, 99.9762°W)
Time: 15:33:15
(UTC+00:00)

Cosmos 1174 - Pass Details

Date: 18 January 2020
Orbit: 375 x 1144 km, 66.1° (Epoch: 23 February)

Event Time Altitude Azimuth Distance (km) Brightness Sun altitude
Rises 00:33:39 0° 329° (NNW) 2,297 7.2 -9.4°
Reaches altitude 10° 00:35:33 10° 328° (NNW) 1,482 6.2 -9.8°
Maximum altitude 00:38:46 76° 243° (WSW) 469 3.6 -10.4°
Drops below altitude 10° 00:42:33 10° 157° (SSE) 1,738 6.3 -11.1°
Sets 00:44:56 0° 156° (SSE) 2,746 7.3 -11.5°
